Weather History for Redmond, OR

Change the Weather History Date:

Saturday, January 25, 2014

  Actual Average Record
Temperature  
Mean Temperature 31 °F 34 °F  
Max Temperature 47 °F 44 °F 61 °F (1951)
Min Temperature 14 °F 24 °F -12 °F (1957)
Degree Days  
Heating Degree Days 34 31  
Month to date heating degree days 746 813  
Since 1 July heating degree days 3641 3653  
Cooling Degree Days 0 0  
Month to date cooling degree days 0 0  
Year to date cooling degree days 0 0  
Moisture  
Dew Point 19 °F    
Average Humidity 71    
Maximum Humidity 100    
Minimum Humidity 42    
Precipitation  
Precipitation 0.00 in 0.02 in 0.38 in (1987)
Month to date precipitation 0.26 0.81  
Year to date precipitation 0.26 0.81  
Sea Level Pressure  
Sea Level Pressure 30.44 in    
Wind  
Wind Speed 2 mph (SSW)    
Max Wind Speed 7 mph    
Max Gust Speed 9 mph    
Visibility 6 miles    
Events Fog    
T = Trace of Precipitation, MM = Missing Value Source: NWS Daily Summary

Daily Weather History Graph

Daily Weather History Graph

Search for Another Location

Airport:

Trip Planner

Search our weather history database for the weather conditions in past years. The results will help you decide how hot, cold, wet, or windy it might be!

Date:

Astronomy

Jan. 25, 2014 Rise Set
Actual Time 7:29 AM PST 5:04 PM PST
Civil Twilight 6:58 AM PST 5:36 PM PST
Nautical Twilight 6:23 AM PST 6:11 PM PST
Astronomical Twilight 5:48 AM PST 6:45 PM PST
Moon 2:06 AM PST (1/25) 12:09 PM PST (1/25)
Length of Visible Light 10h 38m
Length of Day
9h 35m
Waning Crescent, 33% of the Moon is Illuminated
Jan 25
Waning Crescent
Jan 30
New
Feb 6
First Quarter
Feb 14
Full
Feb 22
Last Quarter

Hourly Weather History & Observations

Time (PST) Temp. Windchill Dew Point Humidity Pressure Visibility Wind Dir Wind Speed Gust Speed Precip Events Conditions
12:56 AM 21.0 °F 14.6 °F 19.0 °F 92% 30.55 in 0.2 mi NW 4.6 mph - N/A Fog Light Freezing Fog
1:56 AM 21.9 °F - 21.0 °F 96% 30.53 in 0.2 mi Calm Calm - N/A Fog Light Freezing Fog
2:27 AM 19.9 °F 13.4 °F 18.0 °F 92% 30.44 in 0.5 mi SE 4.6 mph - N/A Fog Light Freezing Fog
2:56 AM 19.9 °F 14.9 °F 18.0 °F 92% 30.53 in 0.5 mi South 3.5 mph - N/A Fog Light Freezing Fog
3:16 AM 19.9 °F 14.9 °F 19.0 °F 96% 30.44 in 0.2 mi SSE 3.5 mph - N/A Fog Light Freezing Fog
3:56 AM 19.0 °F - 18.0 °F 96% 30.52 in 0.2 mi Calm Calm - N/A Fog Light Freezing Fog
4:26 AM 19.0 °F - 16.0 °F 88% 30.43 in 0.5 mi Calm Calm - N/A Fog Light Freezing Fog
4:56 AM 18.0 °F - 16.0 °F 92% 30.52 in 0.5 mi Calm Calm - N/A Fog Light Freezing Fog
5:56 AM 17.1 °F - 15.1 °F 92% 30.52 in 0.5 mi Calm Calm - N/A Fog Light Freezing Fog
6:53 AM 15.8 °F - 12.2 °F 86% 30.41 in 1.0 mi Calm Calm - N/A   Overcast
6:56 AM 16.0 °F - 12.9 °F 88% 30.53 in 3.0 mi Calm Calm - N/A   Overcast
7:29 AM 14.0 °F - 10.9 °F 88% 30.41 in 5.0 mi Calm Calm - N/A   Mostly Cloudy
7:48 AM 15.1 °F - 10.9 °F 84% 30.41 in 8.0 mi Calm Calm - N/A   Scattered Clouds
7:56 AM 14.0 °F - 10.9 °F 88% 30.53 in 9.0 mi Calm Calm - N/A   Clear
8:56 AM 19.0 °F - 16.0 °F 88% 30.52 in 10.0 mi Calm Calm - N/A   Clear
9:56 AM 23.0 °F - 21.0 °F 92% 30.51 in 10.0 mi Calm Calm - N/A   Clear
10:56 AM 30.9 °F - 26.1 °F 82% 30.49 in 10.0 mi Calm Calm - N/A   Clear
11:56 AM 39.9 °F - 26.1 °F 58% 30.44 in 10.0 mi Calm Calm - N/A   Clear
12:56 PM 45.0 °F 41.8 °F 26.1 °F 48% 30.41 in 10.0 mi NW 5.8 mph - N/A   Clear
1:56 PM 45.0 °F 41.8 °F 25.0 °F 46% 30.39 in 10.0 mi NW 5.8 mph - N/A   Clear
2:56 PM 46.0 °F 44.8 °F 25.0 °F 44% 30.38 in 10.0 mi NW 3.5 mph - N/A   Clear
3:56 PM 46.0 °F 44.8 °F 26.1 °F 46% 30.38 in 10.0 mi West 3.5 mph - N/A   Clear
4:56 PM 41.0 °F 39.0 °F 26.1 °F 55% 30.37 in 10.0 mi North 3.5 mph - N/A   Clear
5:56 PM 30.9 °F - 23.0 °F 72% 30.39 in 10.0 mi Calm Calm - N/A   Clear
6:56 PM 27.0 °F 23.0 °F 21.0 °F 78% 30.39 in 10.0 mi South 3.5 mph - N/A   Clear
7:56 PM 26.1 °F - 21.0 °F 81% 30.40 in 10.0 mi Calm Calm - N/A   Clear
8:56 PM 24.1 °F - 19.9 °F 84% 30.38 in 10.0 mi Calm Calm - N/A   Clear
9:56 PM 25.0 °F 19.3 °F 19.0 °F 78% 30.37 in 10.0 mi SSE 4.6 mph - N/A   Clear
10:56 PM 24.1 °F 17.0 °F 18.0 °F 77% 30.34 in 10.0 mi SSE 5.8 mph - N/A   Clear
11:56 PM 26.1 °F 19.4 °F 18.0 °F 71% 30.32 in 10.0 mi SSE 5.8 mph - N/A   Clear